Regional Weather Roundup
Issued by NWS

Home | Current Version | Previous Version | Graphics & Text | Print | Product List | Glossary On
Versions: 1 2 3 4 5 6 7 8 9 10 11 12 13 14 15 16 17 18 19 20 21 22 23 24 25 26 27 28 29 30 31 32 33 34 35 36 37 38 39 40 41 42 43 44 45 46 47 48 49 50
000
ASUS43 KIND 180509
RWRIN

WEATHER ROUNDUP FOR INDIANA
NATIONAL WEATHER SERVICE INDIANAPOLIS IN
1200 AM EST WED JAN 18 2017

NOTE: "FAIR" INDICATES FEW OR NO CLOUDS BELOW 12,000 FEET WITH NO
SIGNIFICANT WEATHER AND/OR OBSTRUCTIONS TO VISIBILITY.

* - STATION DOES NOT REPORT WEATHER SUCH AS PRECIPITATION OR FOG.

+ - STATION NOT QUALITY CONTROLLED BY THE NATIONAL WEATHER SERVICE.
    USE DATA WITH CAUTION...ESPECIALLY DEWPOINT AND RELATIVE
    HUMIDITY OBSERVATIONS.

INZ001>003-010>013-019-020-180600-
NORTHWEST INDIANA

CITY           SKY/WX    TMP DP  RH WIND       PRES   REMARKS
GARY /AIRPORT/ CLOUDY    37  35  93 W8        30.01F FOG
KNOX *+        CLOUDY    34  27  75 W12       30.00F WCI  25
LA PORTE +     CLOUDY    34  33  96 W10       30.00S FOG     WCI  26
MICHIGAN CITY+ CLOUDY    34  34 100 W10       30.00S FOG     WCI  26
MONTICELLO +   CLOUDY    35  33  94 W13       30.04S FOG     WCI  26
RENSSELAER +     N/A     34  34 100 W12       30.04S FOG     WCI  25
VALPARAISO     CLOUDY    36  34  92 W13       30.01S

$$

LMZ046-743>745-180600-
SOUTHERN LAKE MICHIGAN

STATION/POSITION TIME  TEMP    WIND        PRES    WAVE
                       AIR SEA DIR/SP/G            HT
                 (UTC) (F)     (DEG/KT/KT) (MB)    (FT)
BURNS HARBOR     0440   35     260/ 16/ 18 1016.3F

$$

INZ004-005-014>016-021>024-180600-
NORTH CENTRAL INDIANA

CITY           SKY/WX    TMP DP  RH WIND       PRES   REMARKS
GOSHEN         CLOUDY    35  32  88 W13       29.98R FOG     WCI  26
LOGANSPORT +   CLOUDY    34  34 100 W16G22    30.05R WCI  23
PERU/GRISSOM   CLOUDY    36  36 100 W15       30.01S
ROCHESTER +    CLOUDY    36  36 100 W8        30.02S FOG
SOUTH BEND     CLOUDY    34  34 100 W9        29.99R WCI  27
WARSAW +       CLOUDY    34  30  86 W13       29.99S HAZE    WCI  25

$$

INZ006>009-017-018-025>027-180600-
NORTHEAST INDIANA

CITY           SKY/WX    TMP DP  RH WIND       PRES   REMARKS
ANGOLA *+      CLOUDY    36  34  93 W10       29.95S
AUBURN +       CLOUDY    36  34  93 W10G17    29.98S FOG
FORT WAYNE     CLOUDY    37  34  89 W18       30.00R
HUNTINGTON +   CLOUDY    35  34  96 W14G21    30.01R WCI  26
KENDALLVILLE + CLOUDY    35  35 100 W15G21    29.97R FOG     WCI  25

$$

INZ028-029-035-036-043>045-051>053-180600-
WEST CENTRAL INDIANA

CITY           SKY/WX    TMP DP  RH WIND       PRES   REMARKS
CRAWFORDSVL +  CLOUDY    34  34 100 W9        30.08S WCI  27
GREENCASTLE +  CLOUDY    36  34  93 W7        30.09R FOG
LAFAYETTE      CLOUDY    35  34  96 W9        30.06S WCI  28
TERRE HAUTE    CLOUDY    39  34  82 NW9       30.11R

$$

INZ030>032-037>040-046>048-054>057-064-065-180600-
CENTRAL INDIANA

CITY           SKY/WX    TMP DP  RH WIND       PRES   REMARKS
CP ATTERBURY + CLOUDY    41  37  87 W10       30.08R
FISHERS *+     CLOUDY    36  36 100 W10G20    30.06R
FRANKFORT +    CLOUDY    38  37  93 W15       30.07S FOG
GREENWOOD *+   CLOUDY    40  38  93 W13G21    30.07R
INDIANAPOLIS   CLOUDY    38  35  89 W18       30.07R
-EAGLE CREEK   CLOUDY    38  34  85 W14G24    30.06S
KOKOMO +       MIX PCPN  36  34  92 W17       30.04R
MARION +       CLOUDY    36  36 100 W20       30.03S FOG
MT COMFORT *+  CLOUDY    37  36  93 W17       30.06R
SHELBYVILLE    CLOUDY    42  36  79 W14       30.05S
ZIONSVILLE +   CLOUDY    36  34  93 W15G21    30.06S

$$

INZ033-034-041-042-049-050-058-059-180600-
EAST CENTRAL INDIANA

CITY           SKY/WX    TMP DP  RH WIND       PRES   REMARKS
MUNCIE         CLOUDY    39  36  89 W12       30.03R

$$

INZ060-061-067>069-081>083-085>088-180600-
SOUTHWEST INDIANA

CITY           SKY/WX    TMP DP  RH WIND       PRES   REMARKS
EVANSVILLE     CLOUDY    44  40  85 W9        30.16R
HUNTINGBURG *+ CLOUDY    43  39  87 W12       30.13S
WASHINGTON +   CLOUDY    41  39  92 W8        30.12S

$$

INZ062-063-066-070>080-084-089>092-180600-
SOUTH CENTRAL AND SOUTHEAST INDIANA

CITY           SKY/WX    TMP DP  RH WIND       PRES   REMARKS
BLOOMINGTON    CLOUDY    40  36  86 W8        30.08S
MADISON *+     CLOUDY    43  41  93 W7        30.10S
NORTH VERNON + CLOUDY   N/A N/A N/A W10       30.08R HAZE
SEYMOUR +      CLOUDY    45  43  93 SW10      30.08S FOG

$$





USA.gov is the U.S. government's official web portal to all federal, state and local government web resources and services.